This demonstration page uses our WeatherBlox Daily Observations layout. Learn more.

Left ArrowRight Arrow

39.51506, -84.39828

Hourly Observations for October 7, 2020

Temp ( °F °C ) Dew Point ( °F °C ) Humidity (%) Winds ( mph kmh ) Pressure ( in mb ) Visibility ( mi km ) Precip ( " mm )
12:15 am 00:15 Clear 53 11.9 48 8.8 81 81 Calm 29.98 1015 10 16.0934 0 0
12:35 am 00:35 Clear 53 11.4 47 8.6 83 83 Calm 29.98 1015 10 16.0934 0 0
12:55 am 00:55 Clear 53 11.5 47 8.4 81 81 Calm 29.99 1015 10 16.0934 0 0
1:15 am 01:15 Clear 52 11.2 46 7.7 79 79 W 6 9 29.98 1015 10 16.0934 0 0
1:35 am 01:35 Clear 55 12.7 46 8 73 73 Calm 29.98 1015 10 16.0934 0 0
1:55 am 01:55 Clear 53 11.8 46 7.8 77 77 WSW 7 11 29.97 1015 10 16.0934 0 0
2:15 am 02:15 Clear 53 11.4 46 7.6 78 78 WSW 6 9 29.98 1015 10 16.0934 0 0
2:35 am 02:35 Clear 53 11.8 46 7.7 76 76 WSW 3 6 29.97 1015 10 16.0934 0 0
2:55 am 02:55 Clear 52 11.1 46 7.9 81 81 Calm 29.98 1015 10 16.0934 0 0
3:15 am 03:15 Clear 50 9.9 45 7 82 82 Calm 29.97 1015 10 16.0934 0 0
3:35 am 03:35 Clear 49 9.6 47 8.2 91 91 Calm 29.97 1015 10 16.0934 0 0
3:55 am 03:55 Clear 49 9.2 46 7.9 92 92 Calm 29.96 1015 10 16.0934 0 0
4:15 am 04:15 Clear 49 9.2 47 8.5 95 95 SW 5 7 29.96 1015 10 16.0934 0 0
4:35 am 04:35 Clear 49 9.3 46 8 92 92 Calm 29.95 1014 10 16.0934 0 0
4:55 am 04:55 Clear 49 9.3 45 7.4 88 88 WSW 5 7 29.95 1014 10 16.0934 0 0
5:15 am 05:15 Clear 47 8.3 45 7.1 92 92 Calm 29.96 1015 10 16.0934 0 0
5:35 am 05:35 Clear 47 8.2 45 7 92 92 Calm 29.96 1015 10 16.0934 0 0
5:55 am 05:55 Clear 48 8.9 47 8.2 95 95 Calm 29.96 1015 10 16.0934 0 0
6:15 am 06:15 Clear 48 8.9 47 8.4 97 97 Calm 29.96 1015 10 16.0934 0 0
6:35 am 06:35 Clear 47 8.2 46 7.8 97 97 Calm 29.96 1015 10 16.0934 0 0
6:55 am 06:55 Clear 47 8.2 45 7.3 94 94 SW 5 7 29.96 1015 10 16.0934 0 0
7:15 am 07:15 Clear 49 9.3 46 7.9 91 91 SW 5 7 29.96 1015 10 16.0934 0 0
7:35 am 07:35 Clear 48 9.1 46 7.8 92 92 WSW 3 6 29.96 1015 10 16.0934 0 0
7:55 am 07:55 Sunny 49 9.2 46 7.8 91 91 WSW 5 7 29.96 1015 10 16.0934 0 0
8:15 am 08:15 Sunny 50 9.9 47 8.5 91 91 WSW 6 9 29.96 1015 10 16.0934 0 0
8:35 am 08:35 Sunny 52 11.2 49 9.2 88 88 WSW 6 9 29.96 1014 10 16.0934 0 0
8:55 am 08:55 Sunny 54 12.1 49 9.3 83 83 WSW 6 9 29.96 1015 10 16.0934 0 0
9:15 am 09:15 Sunny 56 13.2 49 9.4 78 78 WSW 9 15 29.96 1015 10 16.0934 0 0
9:35 am 09:35 Sunny 58 14.4 50 9.8 74 74 WSW 9 15 29.96 1014 10 16.0934 0 0
9:55 am 09:55 Sunny 60 15.5 50 9.9 69 69 WSW 12 19 29.95 1014 10 16.0934 0 0
10:15 am 10:15 Sunny 62 16.7 51 10.3 66 66 WSW 13 20 29.94 1014 10 16.0934 0 0
10:35 am 10:35 Sunny 64 18 52 10.9 63 63 WSW 14 22 29.94 1014 10 16.0934 0 0
10:55 am 10:55 Sunny 66 19 52 11.2 61 61 WSW 14 22 29.93 1013 10 16.0934 0 0
11:15 am 11:15 Sunny 68 20.1 53 11.6 58 58 WSW 15 24 29.92 1013 10 16.0934 0 0
11:35 am 11:35 Sunny 71 21.4 54 12.2 56 56 WSW 13 20 29.92 1013 10 16.0934 0 0
11:55 am 11:55 Sunny 72 22.2 54 12.3 54 54 WSW 12 19 29.91 1013 10 16.0934 0 0
12:15 pm 12:15 Sunny 75 24 55 12.7 49 49 W 15 24 29.91 1013 10 16.0934 0 0
12:35 pm 12:35 Sunny 78 25.3 54 12.4 45 45 W 12 19 29.89 1012 10 16.0934 0 0
12:55 pm 12:55 Sunny 78 25.6 54 12 43 43 W 17 28 29.89 1012 10 16.0934 0 0
1:15 pm 13:15 Sunny 79 26.2 53 11.9 41 41 W 17 28 29.88 1012 10 16.0934 0 0
1:35 pm 13:35 Sunny 81 27 53 11.9 39 39 W 16 26 29.88 1012 10 16.0934 0 0
1:55 pm 13:55 Sunny 82 27.6 53 11.7 37 37 WNW 16 26 29.88 1012 10 16.0934 0 0
2:15 pm 14:15 Sunny 82 27.6 52 11.3 36 36 NW 17 28 29.88 1012 10 16.0934 0 0
2:35 pm 14:35 Sunny 82 27.9 53 11.6 36 36 WNW 20 31 29.87 1011 10 16.0934 0 0
2:55 pm 14:55 Sunny 82 28 54 12 37 37 NW 13 20 29.87 1011 10 16.0934 0 0
3:15 pm 15:15 Sunny 83 28.4 53 11.6 35 35 NW 15 24 29.86 1011 10 16.0934 0 0
3:35 pm 15:35 Sunny 83 28.6 51 10.8 33 33 NW 15 24 29.86 1011 10 16.0934 0 0
3:55 pm 15:55 Sunny 84 28.9 53 11.5 34 34 NW 15 24 29.85 1011 10 16.0934 0 0
4:15 pm 16:15 Sunny 83 28.6 52 11 33 33 WNW 15 24 29.86 1011 10 16.0934 0 0
4:35 pm 16:35 Sunny 84 28.7 50 10 31 31 NW 20 31 29.85 1011 10 16.0934 0 0
4:55 pm 16:55 Sunny 83 28.4 51 10.4 33 33 NNW 16 26 29.87 1011 10 16.0934 0 0
5:15 pm 17:15 Sunny 83 28.2 51 10.4 33 33 NNW 16 26 29.87 1011 10 16.0934 0 0
5:35 pm 17:35 Sunny 82 27.8 50 10.1 33 33 NNW 15 24 29.87 1011 10 16.0934 0 0
5:55 pm 17:55 Sunny 81 27.4 50 10.2 34 34 NNW 12 19 29.88 1012 10 16.0934 0 0
6:15 pm 18:15 Sunny 80 26.8 50 10 35 35 NNW 10 17 29.89 1012 10 16.0934 0 0
6:35 pm 18:35 Sunny 79 26.1 50 9.8 36 36 NNW 10 17 29.9 1013 10 16.0934 0 0
6:55 pm 18:55 Sunny 76 24.5 50 10.2 41 41 NNW 3 6 29.9 1013 10 16.0934 0 0
7:15 pm 19:15 Clear 74 23.4 51 10.4 44 44 Calm 29.92 1013 10 16.0934 0 0
7:35 pm 19:35 Clear 69 20.3 53 11.5 57 57 NW 5 7 29.93 1014 10 16.0934 0 0
7:55 pm 19:55 Clear 67 19.5 54 12 62 62 Calm 29.95 1014 10 16.0934 0 0
8:15 pm 20:15 Clear 64 18 54 12.1 69 69 Calm 29.96 1015 10 16.0934 0 0
8:35 pm 20:35 Clear 63 17 54 12.1 73 73 Calm 29.97 1015 10 16.0934 0 0
8:55 pm 20:55 Clear 69 20.4 46 7.9 45 45 NNE 9 15 29.97 1015 10 16.0934 0 0
9:15 pm 21:15 Clear 67 19.6 45 7.1 44 44 NNE 8 13 29.99 1015 10 16.0934 0 0
9:35 pm 21:35 Clear 68 19.8 42 5.3 39 39 NE 12 19 30 1016 10 16.0934 0 0
9:55 pm 21:55 Clear 67 19.2 40 4.4 38 38 NE 10 17 30.01 1016 10 16.0934 0 0
10:15 pm 22:15 Clear 65 18.4 40 4.6 40 40 NE 6 9 30.01 1016 10 16.0934 0 0
10:35 pm 22:35 Clear 63 17.4 41 4.9 44 44 ENE 7 11 30.02 1017 10 16.0934 0 0
10:55 pm 22:55 Clear 61 15.9 41 5.1 49 49 E 6 9 30.03 1017 10 16.0934 0 0
11:15 pm 23:15 Clear 59 15 43 6 55 55 E 6 9 30.04 1017 10 16.0934 0 0
11:35 pm 23:35 Clear 59 14.9 44 6.4 57 57 E 3 6 30.05 1017 10 16.0934 0 0
11:55 pm 23:55 Clear 58 14.5 44 6.9 61 61 Calm 30.05 1018 10 16.0934 0 0

Powered by AerisWeather